This demonstration page uses our WeatherBlox Daily Observations layout. Learn more.

Left ArrowRight Arrow

39.08367, -84.50855

Hourly Observations for August 7, 2020

Temp ( °F °C ) Dew Point ( °F °C ) Humidity (%) Winds ( mph kmh ) Pressure ( in mb ) Visibility ( mi km ) Precip ( " mm )
12:53 am 00:53 Cloudy 63 17.2 61 16.1 93 93 N N/A 30.09 1019 10 16 N/A
1:53 am 01:53 Partly Cloudy 63 17.2 61 16.1 93 93 N N/A 30.08 1019 10 16 N/A
2:53 am 02:53 Mostly Cloudy 62 16.7 61 16.1 96 96 N N/A 30.09 1019 10 16 N/A
3:53 am 03:53 Mostly Cloudy 63 17.2 61 16.1 93 93 N N/A 30.09 1019 10 16 N/A
4:53 am 04:53 Mostly Cloudy 62 16.7 60 15.6 93 93 N N/A 30.09 1019 10 16 N/A
5:53 am 05:53 Cloudy 63 17.2 61 16.1 93 93 N N/A 30.10 1019 10 16 N/A
6:53 am 06:53 Mostly Cloudy 63 17.2 61 16.1 93 93 N N/A 30.11 1020 7 11 N/A
7:53 am 07:53 Partly Cloudy 64 17.8 61 16.1 90 90 N N/A 30.13 1020 10 16 N/A
8:53 am 08:53 Mostly Sunny 68 20 61 16.1 78 78 ENE 5 7 30.14 1021 10 16 N/A
9:53 am 09:53 Partly Cloudy 71 21.7 61 16.1 71 71 E 3 6 30.14 1021 10 16 N/A
10:53 am 10:53 Partly Cloudy 76 24.4 60 15.6 58 58 NE 10 17 30.14 1021 10 16 N/A
11:53 am 11:53 Partly Cloudy 78 25.6 61 16.1 56 56 VRB 5 7 30.14 1021 10 16 N/A
12:53 pm 12:53 Partly Cloudy 79 26.1 58 14.4 49 49 E 6 9 30.14 1021 10 16 N/A
1:53 pm 13:53 Mostly Cloudy 81 27.2 58 14.4 45 45 N 8 13 30.14 1021 10 16 N/A
2:53 pm 14:53 Mostly Cloudy 81 27.2 59 15 47 47 ESE 5 7 30.13 1020 10 16 N/A
3:53 pm 15:53 Mostly Sunny 81 27.2 57 13.9 44 44 NW 7 11 30.12 1020 10 16 N/A
4:53 pm 16:53 Mostly Cloudy 82 27.8 58 14.4 44 44 NNE 9 15 30.11 1020 10 16 N/A
5:53 pm 17:53 Mostly Cloudy 79 26.1 58 14.4 49 49 N 3 6 30.11 1020 10 16 N/A
6:53 pm 18:53 Partly Cloudy 77 25 61 16.1 58 58 N N/A 30.10 1019 10 16 N/A
7:53 pm 19:53 Mostly Cloudy 77 25 63 17.2 62 62 ENE 3 6 30.10 1019 10 16 N/A
8:53 pm 20:53 Mostly Cloudy 76 24.4 57 13.9 52 52 NW 5 7 30.12 1020 10 16 N/A
9:53 pm 21:53 Partly Cloudy 67 19.4 61 16.1 81 81 N N/A 30.14 1021 10 16 N/A
10:53 pm 22:53 Clear 64 17.8 61 16.1 90 90 N N/A 30.15 1021 10 16 N/A
11:53 pm 23:53 Clear 63 17.2 60 15.6 90 90 N N/A 30.15 1021 10 16 N/A

Powered by AerisWeather